This is the latest recevied weather packets stored in our database for station/object KD2RHT-13. If no packets are shown the sender has not sent any weather packets the latest 10 day(s).
| Time | Temp. | Humidity | Pressure | Rain* | Wind** | Luminosity | Snow |
|---|---|---|---|---|---|---|---|
| 1777936251 | 22.78° C | 41% | 1005 hPa | 0 mm | - | 33 W/m² | - |
| 1777935947 | 22.78° C | 39% | 1005 hPa | 0 mm | - | 35 W/m² | - |
| 1777935646 | 22.78° C | 40% | 1005.3 hPa | 0 mm | - | 36 W/m² | - |
| 1777935343 | 22.78° C | 41% | 1005 hPa | 0 mm | - | 48 W/m² | - |
| 1777935040 | 22.78° C | 40% | 1005 hPa | 0 mm | - | 48 W/m² | - |
| 1777934736 | 22.78° C | 41% | 1005.3 hPa | 0 mm | - | 48 W/m² | - |
| 1777934434 | 22.78° C | 43% | 1005 hPa | 0 mm | - | 48 W/m² | - |
| 1777934131 | 22.78° C | 41% | 1005.3 hPa | 0 mm | - | 58 W/m² | - |
| 1777933826 | 22.78° C | 42% | 1005.3 hPa | 0 mm | - | 74 W/m² | - |
| 1777933523 | 22.78° C | 40% | 1005 hPa | 0 mm | - | 55 W/m² | - |
| 1777933221 | 22.78° C | 40% | 1005.3 hPa | 0 mm | - | 61 W/m² | - |
| 1777932918 | 22.78° C | 44% | 1005.3 hPa | 0 mm | - | 71 W/m² | - |
| 1777932615 | 22.78° C | 43% | 1005.3 hPa | 0 mm | - | 64 W/m² | - |
| 1777932311 | 22.78° C | 44% | 1005.3 hPa | 0 mm | - | 66 W/m² | - |
| 1777932008 | 22.78° C | 41% | 1005.6 hPa | 0 mm | - | 68 W/m² | - |
| 1777931705 | 22.78° C | 41% | 1005.6 hPa | 0 mm | - | 82 W/m² | - |
| 1777931402 | 22.78° C | 44% | 1005.3 hPa | 0 mm | - | 73 W/m² | - |
| 1777931098 | 22.78° C | 42% | 1005.3 hPa | 0 mm | - | 78 W/m² | - |
| 1777930795 | 22.78° C | 43% | 1005.6 hPa | 0 mm | - | 102 W/m² | - |
| 1777930490 | 22.78° C | 42% | 1005.6 hPa | 0 mm | - | 105 W/m² | - |
| 1777930188 | 22.78° C | 43% | 1005.3 hPa | 0 mm | - | 98 W/m² | - |
| 1777929884 | 22.78° C | 44% | 1005.6 hPa | 0 mm | - | 113 W/m² | - |
| 1777929582 | 22.78° C | 43% | 1005.6 hPa | 0 mm | - | 143 W/m² | - |
| 1777929278 | 22.78° C | 43% | 1005.6 hPa | 0 mm | - | 139 W/m² | - |
| 1777928976 | 22.78° C | 44% | 1005.6 hPa | 0 mm | - | 104 W/m² | - |
* Rain latest hour (hover to see other rain measurements)
** Current wind speed in m/s (hover to see current wind gust speed)